Index of /20260501/WXO-DD/model_gdps/15km/00/216
Name Last modified Size Description
Parent Directory -
20260501T00Z_MSC_GDPS_AbsoluteVorticity_IsbL-0200_LatLon0.15_PT216H.grib2 2026-05-01 04:42 1.2M
20260501T00Z_MSC_GDPS_AbsoluteVorticity_IsbL-0250_LatLon0.15_PT216H.grib2 2026-05-01 04:42 1.3M
20260501T00Z_MSC_GDPS_AbsoluteVorticity_IsbL-0500_LatLon0.15_PT216H.grib2 2026-05-01 04:42 1.5M
20260501T00Z_MSC_GDPS_AbsoluteVorticity_IsbL-0700_LatLon0.15_PT216H.grib2 2026-05-01 04:42 1.3M
20260501T00Z_MSC_GDPS_AbsoluteVorticity_IsbL-0850_LatLon0.15_PT216H.grib2 2026-05-01 04:42 1.6M
20260501T00Z_MSC_GDPS_AirTemp-Max_AGL-2m_LatLon0.15_PT216H.grib2 2026-05-01 04:42 748K
20260501T00Z_MSC_GDPS_AirTemp-Min_AGL-2m_LatLon0.15_PT216H.grib2 2026-05-01 04:42 798K
20260501T00Z_MSC_GDPS_AirTemp_AGL-120m_LatLon0.15_PT216H.grib2 2026-05-01 04:42 912K
20260501T00Z_MSC_GDPS_AirTemp_AGL-2m_LatLon0.15_PT216H.grib2 2026-05-01 04:42 1.0M
20260501T00Z_MSC_GDPS_AirTemp_AGL-40m_LatLon0.15_PT216H.grib2 2026-05-01 04:42 817K
20260501T00Z_MSC_GDPS_AirTemp_AGL-80m_LatLon0.15_PT216H.grib2 2026-05-01 04:42 805K
20260501T00Z_MSC_GDPS_AirTemp_IsbL-0001_LatLon0.15_PT216H.grib2 2026-05-01 04:42 663K
20260501T00Z_MSC_GDPS_AirTemp_IsbL-0005_LatLon0.15_PT216H.grib2 2026-05-01 04:42 539K
20260501T00Z_MSC_GDPS_AirTemp_IsbL-0010_LatLon0.15_PT216H.grib2 2026-05-01 04:42 704K
20260501T00Z_MSC_GDPS_AirTemp_IsbL-0020_LatLon0.15_PT216H.grib2 2026-05-01 04:42 795K
20260501T00Z_MSC_GDPS_AirTemp_IsbL-0030_LatLon0.15_PT216H.grib2 2026-05-01 04:42 839K
20260501T00Z_MSC_GDPS_AirTemp_IsbL-0050_LatLon0.15_PT216H.grib2 2026-05-01 04:42 807K
20260501T00Z_MSC_GDPS_AirTemp_IsbL-0100_LatLon0.15_PT216H.grib2 2026-05-01 04:42 967K
20260501T00Z_MSC_GDPS_AirTemp_IsbL-0150_LatLon0.15_PT216H.grib2 2026-05-01 04:42 1.0M
20260501T00Z_MSC_GDPS_AirTemp_IsbL-0175_LatLon0.15_PT216H.grib2 2026-05-01 04:42 955K
20260501T00Z_MSC_GDPS_AirTemp_IsbL-0200_LatLon0.15_PT216H.grib2 2026-05-01 04:42 962K
20260501T00Z_MSC_GDPS_AirTemp_IsbL-0225_LatLon0.15_PT216H.grib2 2026-05-01 04:42 961K
20260501T00Z_MSC_GDPS_AirTemp_IsbL-0250_LatLon0.15_PT216H.grib2 2026-05-01 04:42 1.0M
20260501T00Z_MSC_GDPS_AirTemp_IsbL-0275_LatLon0.15_PT216H.grib2 2026-05-01 04:42 1.0M
20260501T00Z_MSC_GDPS_AirTemp_IsbL-0300_LatLon0.15_PT216H.grib2 2026-05-01 04:42 948K
20260501T00Z_MSC_GDPS_AirTemp_IsbL-0350_LatLon0.15_PT216H.grib2 2026-05-01 04:42 930K
20260501T00Z_MSC_GDPS_AirTemp_IsbL-0400_LatLon0.15_PT216H.grib2 2026-05-01 04:42 942K
20260501T00Z_MSC_GDPS_AirTemp_IsbL-0450_LatLon0.15_PT216H.grib2 2026-05-01 04:42 963K
20260501T00Z_MSC_GDPS_AirTemp_IsbL-0500_LatLon0.15_PT216H.grib2 2026-05-01 04:42 1.0M
20260501T00Z_MSC_GDPS_AirTemp_IsbL-0550_LatLon0.15_PT216H.grib2 2026-05-01 04:42 802K
20260501T00Z_MSC_GDPS_AirTemp_IsbL-0600_LatLon0.15_PT216H.grib2 2026-05-01 04:42 895K
20260501T00Z_MSC_GDPS_AirTemp_IsbL-0650_LatLon0.15_PT216H.grib2 2026-05-01 04:42 915K
20260501T00Z_MSC_GDPS_AirTemp_IsbL-0700_LatLon0.15_PT216H.grib2 2026-05-01 04:42 952K
20260501T00Z_MSC_GDPS_AirTemp_IsbL-0750_LatLon0.15_PT216H.grib2 2026-05-01 04:42 1.0M
20260501T00Z_MSC_GDPS_AirTemp_IsbL-0800_LatLon0.15_PT216H.grib2 2026-05-01 04:42 1.1M
20260501T00Z_MSC_GDPS_AirTemp_IsbL-0850_LatLon0.15_PT216H.grib2 2026-05-01 04:42 1.1M
20260501T00Z_MSC_GDPS_AirTemp_IsbL-0875_LatLon0.15_PT216H.grib2 2026-05-01 04:42 1.1M
20260501T00Z_MSC_GDPS_AirTemp_IsbL-0900_LatLon0.15_PT216H.grib2 2026-05-01 04:42 1.1M
20260501T00Z_MSC_GDPS_AirTemp_IsbL-0925_LatLon0.15_PT216H.grib2 2026-05-01 04:42 1.1M
20260501T00Z_MSC_GDPS_AirTemp_IsbL-0950_LatLon0.15_PT216H.grib2 2026-05-01 04:42 1.1M
20260501T00Z_MSC_GDPS_AirTemp_IsbL-0970_LatLon0.15_PT216H.grib2 2026-05-01 04:42 1.1M
20260501T00Z_MSC_GDPS_AirTemp_IsbL-0985_LatLon0.15_PT216H.grib2 2026-05-01 04:42 1.1M
20260501T00Z_MSC_GDPS_AirTemp_IsbL-1000_LatLon0.15_PT216H.grib2 2026-05-01 04:42 1.1M
20260501T00Z_MSC_GDPS_AirTemp_IsbL-1015_LatLon0.15_PT216H.grib2 2026-05-01 04:42 1.1M
20260501T00Z_MSC_GDPS_Albedo_Sfc_LatLon0.15_PT216H.grib2 2026-05-01 04:42 243K
20260501T00Z_MSC_GDPS_CAPE_Sfc_LatLon0.15_PT216H.grib2 2026-05-01 04:42 3.9M
20260501T00Z_MSC_GDPS_CIN_Sfc_LatLon0.15_PT216H.grib2 2026-05-01 04:42 2.9M
20260501T00Z_MSC_GDPS_CloudWater_EAtm_LatLon0.15_PT216H.grib2 2026-05-01 04:42 542K
20260501T00Z_MSC_GDPS_ConvectivePrecip-Accum_Sfc_LatLon0.15_PT216H.grib2 2026-05-01 04:42 4.0M
20260501T00Z_MSC_GDPS_DewPointDepression_AGL-2m_LatLon0.15_PT216H.grib2 2026-05-01 04:42 764K
20260501T00Z_MSC_GDPS_DewPointDepression_IsbL-0010_LatLon0.15_PT216H.grib2 2026-05-01 04:42 60K
20260501T00Z_MSC_GDPS_DewPointDepression_IsbL-0020_LatLon0.15_PT216H.grib2 2026-05-01 04:42 81K
20260501T00Z_MSC_GDPS_DewPointDepression_IsbL-0030_LatLon0.15_PT216H.grib2 2026-05-01 04:42 95K
20260501T00Z_MSC_GDPS_DewPointDepression_IsbL-0050_LatLon0.15_PT216H.grib2 2026-05-01 04:42 384K
20260501T00Z_MSC_GDPS_DewPointDepression_IsbL-0100_LatLon0.15_PT216H.grib2 2026-05-01 04:42 397K
20260501T00Z_MSC_GDPS_DewPointDepression_IsbL-0150_LatLon0.15_PT216H.grib2 2026-05-01 04:42 493K
20260501T00Z_MSC_GDPS_DewPointDepression_IsbL-0175_LatLon0.15_PT216H.grib2 2026-05-01 04:42 580K
20260501T00Z_MSC_GDPS_DewPointDepression_IsbL-0200_LatLon0.15_PT216H.grib2 2026-05-01 04:42 685K
20260501T00Z_MSC_GDPS_DewPointDepression_IsbL-0225_LatLon0.15_PT216H.grib2 2026-05-01 04:42 775K
20260501T00Z_MSC_GDPS_DewPointDepression_IsbL-0250_LatLon0.15_PT216H.grib2 2026-05-01 04:42 870K
20260501T00Z_MSC_GDPS_DewPointDepression_IsbL-0275_LatLon0.15_PT216H.grib2 2026-05-01 04:42 888K
20260501T00Z_MSC_GDPS_DewPointDepression_IsbL-0300_LatLon0.15_PT216H.grib2 2026-05-01 04:42 932K
20260501T00Z_MSC_GDPS_DewPointDepression_IsbL-0350_LatLon0.15_PT216H.grib2 2026-05-01 04:42 956K
20260501T00Z_MSC_GDPS_DewPointDepression_IsbL-0400_LatLon0.15_PT216H.grib2 2026-05-01 04:42 1.0M
20260501T00Z_MSC_GDPS_DewPointDepression_IsbL-0450_LatLon0.15_PT216H.grib2 2026-05-01 04:42 1.0M
20260501T00Z_MSC_GDPS_DewPointDepression_IsbL-0500_LatLon0.15_PT216H.grib2 2026-05-01 04:42 1.0M
20260501T00Z_MSC_GDPS_DewPointDepression_IsbL-0550_LatLon0.15_PT216H.grib2 2026-05-01 04:42 1.0M
20260501T00Z_MSC_GDPS_DewPointDepression_IsbL-0600_LatLon0.15_PT216H.grib2 2026-05-01 04:42 1.1M
20260501T00Z_MSC_GDPS_DewPointDepression_IsbL-0650_LatLon0.15_PT216H.grib2 2026-05-01 04:42 1.1M
20260501T00Z_MSC_GDPS_DewPointDepression_IsbL-0700_LatLon0.15_PT216H.grib2 2026-05-01 04:42 1.1M
20260501T00Z_MSC_GDPS_DewPointDepression_IsbL-0750_LatLon0.15_PT216H.grib2 2026-05-01 04:42 1.1M
20260501T00Z_MSC_GDPS_DewPointDepression_IsbL-0800_LatLon0.15_PT216H.grib2 2026-05-01 04:42 1.2M
20260501T00Z_MSC_GDPS_DewPointDepression_IsbL-0850_LatLon0.15_PT216H.grib2 2026-05-01 04:42 1.2M
20260501T00Z_MSC_GDPS_DewPointDepression_IsbL-0875_LatLon0.15_PT216H.grib2 2026-05-01 04:42 1.1M
20260501T00Z_MSC_GDPS_DewPointDepression_IsbL-0900_LatLon0.15_PT216H.grib2 2026-05-01 04:42 1.1M
20260501T00Z_MSC_GDPS_DewPointDepression_IsbL-0925_LatLon0.15_PT216H.grib2 2026-05-01 04:42 1.0M
20260501T00Z_MSC_GDPS_DewPointDepression_IsbL-0950_LatLon0.15_PT216H.grib2 2026-05-01 04:42 1.0M
20260501T00Z_MSC_GDPS_DewPointDepression_IsbL-0970_LatLon0.15_PT216H.grib2 2026-05-01 04:42 1.0M
20260501T00Z_MSC_GDPS_DewPointDepression_IsbL-0985_LatLon0.15_PT216H.grib2 2026-05-01 04:42 1.0M
20260501T00Z_MSC_GDPS_DewPointDepression_IsbL-1000_LatLon0.15_PT216H.grib2 2026-05-01 04:42 1.0M
20260501T00Z_MSC_GDPS_DewPointDepression_IsbL-1015_LatLon0.15_PT216H.grib2 2026-05-01 04:42 915K
20260501T00Z_MSC_GDPS_DewPoint_AGL-2m_LatLon0.15_PT216H.grib2 2026-05-01 04:42 606K
20260501T00Z_MSC_GDPS_DownwardLongwaveRadiationFlux-Accum_Sfc_LatLon0.15_PT216H.grib2 2026-05-01 04:42 726K
20260501T00Z_MSC_GDPS_DownwardShortwaveRadiationFlux-Accum_NTAtm_LatLon0.15_PT216H.grib2 2026-05-01 04:42 221K
20260501T00Z_MSC_GDPS_DownwardShortwaveRadiationFlux-Accum_Sfc_LatLon0.15_PT216H.grib2 2026-05-01 04:42 897K
20260501T00Z_MSC_GDPS_FreezingRain-Accum12h_Sfc_LatLon0.15_PT216H.grib2 2026-05-01 04:42 96K
20260501T00Z_MSC_GDPS_FreezingRain-Accum24h_Sfc_LatLon0.15_PT216H.grib2 2026-05-01 04:42 140K
20260501T00Z_MSC_GDPS_FreezingRain-Accum6h_Sfc_LatLon0.15_PT216H.grib2 2026-05-01 04:42 63K
20260501T00Z_MSC_GDPS_FreezingRain-Accum_Sfc_LatLon0.15_PT216H.grib2 2026-05-01 04:42 486K
20260501T00Z_MSC_GDPS_GeopotentialHeight_IsbL-0001_LatLon0.15_PT216H.grib2 2026-05-01 04:42 439K
20260501T00Z_MSC_GDPS_GeopotentialHeight_IsbL-0005_LatLon0.15_PT216H.grib2 2026-05-01 04:42 493K
20260501T00Z_MSC_GDPS_GeopotentialHeight_IsbL-0010_LatLon0.15_PT216H.grib2 2026-05-01 04:42 476K
20260501T00Z_MSC_GDPS_GeopotentialHeight_IsbL-0020_LatLon0.15_PT216H.grib2 2026-05-01 04:42 464K
20260501T00Z_MSC_GDPS_GeopotentialHeight_IsbL-0030_LatLon0.15_PT216H.grib2 2026-05-01 04:42 416K
20260501T00Z_MSC_GDPS_GeopotentialHeight_IsbL-0050_LatLon0.15_PT216H.grib2 2026-05-01 04:42 564K
20260501T00Z_MSC_GDPS_GeopotentialHeight_IsbL-0100_LatLon0.15_PT216H.grib2 2026-05-01 04:42 605K
20260501T00Z_MSC_GDPS_GeopotentialHeight_IsbL-0150_LatLon0.15_PT216H.grib2 2026-05-01 04:42 625K
20260501T00Z_MSC_GDPS_GeopotentialHeight_IsbL-0175_LatLon0.15_PT216H.grib2 2026-05-01 04:42 629K
20260501T00Z_MSC_GDPS_GeopotentialHeight_IsbL-0200_LatLon0.15_PT216H.grib2 2026-05-01 04:42 632K
20260501T00Z_MSC_GDPS_GeopotentialHeight_IsbL-0225_LatLon0.15_PT216H.grib2 2026-05-01 04:42 628K
20260501T00Z_MSC_GDPS_GeopotentialHeight_IsbL-0250_LatLon0.15_PT216H.grib2 2026-05-01 04:42 637K
20260501T00Z_MSC_GDPS_GeopotentialHeight_IsbL-0275_LatLon0.15_PT216H.grib2 2026-05-01 04:42 637K
20260501T00Z_MSC_GDPS_GeopotentialHeight_IsbL-0300_LatLon0.15_PT216H.grib2 2026-05-01 04:42 637K
20260501T00Z_MSC_GDPS_GeopotentialHeight_IsbL-0350_LatLon0.15_PT216H.grib2 2026-05-01 04:42 627K
20260501T00Z_MSC_GDPS_GeopotentialHeight_IsbL-0400_LatLon0.15_PT216H.grib2 2026-05-01 04:42 620K
20260501T00Z_MSC_GDPS_GeopotentialHeight_IsbL-0450_LatLon0.15_PT216H.grib2 2026-05-01 04:42 611K
20260501T00Z_MSC_GDPS_GeopotentialHeight_IsbL-0500_LatLon0.15_PT216H.grib2 2026-05-01 04:42 532K
20260501T00Z_MSC_GDPS_GeopotentialHeight_IsbL-0550_LatLon0.15_PT216H.grib2 2026-05-01 04:42 527K
20260501T00Z_MSC_GDPS_GeopotentialHeight_IsbL-0600_LatLon0.15_PT216H.grib2 2026-05-01 04:42 688K
20260501T00Z_MSC_GDPS_GeopotentialHeight_IsbL-0650_LatLon0.15_PT216H.grib2 2026-05-01 04:42 689K
20260501T00Z_MSC_GDPS_GeopotentialHeight_IsbL-0700_LatLon0.15_PT216H.grib2 2026-05-01 04:42 685K
20260501T00Z_MSC_GDPS_GeopotentialHeight_IsbL-0750_LatLon0.15_PT216H.grib2 2026-05-01 04:42 690K
20260501T00Z_MSC_GDPS_GeopotentialHeight_IsbL-0800_LatLon0.15_PT216H.grib2 2026-05-01 04:42 704K
20260501T00Z_MSC_GDPS_GeopotentialHeight_IsbL-0850_LatLon0.15_PT216H.grib2 2026-05-01 04:42 715K
20260501T00Z_MSC_GDPS_GeopotentialHeight_IsbL-0875_LatLon0.15_PT216H.grib2 2026-05-01 04:42 717K
20260501T00Z_MSC_GDPS_GeopotentialHeight_IsbL-0900_LatLon0.15_PT216H.grib2 2026-05-01 04:42 728K
20260501T00Z_MSC_GDPS_GeopotentialHeight_IsbL-0925_LatLon0.15_PT216H.grib2 2026-05-01 04:42 734K
20260501T00Z_MSC_GDPS_GeopotentialHeight_IsbL-0950_LatLon0.15_PT216H.grib2 2026-05-01 04:42 741K
20260501T00Z_MSC_GDPS_GeopotentialHeight_IsbL-0970_LatLon0.15_PT216H.grib2 2026-05-01 04:42 751K
20260501T00Z_MSC_GDPS_GeopotentialHeight_IsbL-0985_LatLon0.15_PT216H.grib2 2026-05-01 04:42 765K
20260501T00Z_MSC_GDPS_GeopotentialHeight_IsbL-1000_LatLon0.15_PT216H.grib2 2026-05-01 04:42 786K
20260501T00Z_MSC_GDPS_GeopotentialHeight_IsbL-1015_LatLon0.15_PT216H.grib2 2026-05-01 04:42 807K
20260501T00Z_MSC_GDPS_Humidex_Sfc_LatLon0.15_PT216H.grib2 2026-05-01 04:42 5.3M
20260501T00Z_MSC_GDPS_IcePellets-Accum12h_Sfc_LatLon0.15_PT216H.grib2 2026-05-01 04:42 34K
20260501T00Z_MSC_GDPS_IcePellets-Accum24h_Sfc_LatLon0.15_PT216H.grib2 2026-05-01 04:42 50K
20260501T00Z_MSC_GDPS_IcePellets-Accum6h_Sfc_LatLon0.15_PT216H.grib2 2026-05-01 04:42 23K
20260501T00Z_MSC_GDPS_IcePellets-Accum_Sfc_LatLon0.15_PT216H.grib2 2026-05-01 04:42 213K
20260501T00Z_MSC_GDPS_KIndex_Sfc_LatLon0.15_PT216H.grib2 2026-05-01 04:42 6.5M
20260501T00Z_MSC_GDPS_LatentHeatNetFlux_Sfc_LatLon0.15_PT216H.grib2 2026-05-01 04:42 665K
20260501T00Z_MSC_GDPS_LiftedIndex-MU-VT_IsbL-0500_LatLon0.15_PT216H.grib2 2026-05-01 04:42 5.4M
20260501T00Z_MSC_GDPS_NetLongwaveRadiationFlux-Accum_Sfc_LatLon0.15_PT216H.grib2 2026-05-01 04:42 919K
20260501T00Z_MSC_GDPS_NetShortwaveRadiationFlux-Accum_Sfc_LatLon0.15_PT216H.grib2 2026-05-01 04:42 876K
20260501T00Z_MSC_GDPS_O3MixingRatio_Sfc_LatLon0.15_PT216H.grib2 2026-05-01 04:51 1.9M
20260501T00Z_MSC_GDPS_O3_EAtm_LatLon0.15_PT216H.grib2 2026-05-01 04:51 2.4M
20260501T00Z_MSC_GDPS_PlanetaryBoundaryLayerHeight_Sfc_LatLon0.15_PT216H.grib2 2026-05-01 04:42 2.4M
20260501T00Z_MSC_GDPS_Precip-Accum12h_Sfc_LatLon0.15_PT216H.grib2 2026-05-01 04:42 4.1M
20260501T00Z_MSC_GDPS_Precip-Accum24h_Sfc_LatLon0.15_PT216H.grib2 2026-05-01 04:42 4.6M
20260501T00Z_MSC_GDPS_Precip-Accum6h_Sfc_LatLon0.15_PT216H.grib2 2026-05-01 04:42 3.6M
20260501T00Z_MSC_GDPS_Precip-Accum_Sfc_LatLon0.15_PT216H.grib2 2026-05-01 04:42 5.1M
20260501T00Z_MSC_GDPS_PrecipRate_Sfc_LatLon0.15_PT216H.grib2 2026-05-01 04:42 3.0M
20260501T00Z_MSC_GDPS_PrecipType-Instant_Sfc_LatLon0.15_PT216H.grib2 2026-05-01 04:42 1.5M
20260501T00Z_MSC_GDPS_Pressure_MSL_LatLon0.15_PT216H.grib2 2026-05-01 04:42 820K
20260501T00Z_MSC_GDPS_Pressure_PVU-1.5_LatLon0.15_PT216H.grib2 2026-05-01 04:42 5.8M
20260501T00Z_MSC_GDPS_Pressure_PVU-1_LatLon0.15_PT216H.grib2 2026-05-01 04:42 6.0M
20260501T00Z_MSC_GDPS_Pressure_PVU-2_LatLon0.15_PT216H.grib2 2026-05-01 04:42 5.6M
20260501T00Z_MSC_GDPS_Pressure_Sfc_LatLon0.15_PT216H.grib2 2026-05-01 04:42 1.1M
20260501T00Z_MSC_GDPS_RadiativeTemp_Sfc_LatLon0.15_PT216H.grib2 2026-05-01 04:42 661K
20260501T00Z_MSC_GDPS_Rain-Accum12h_Sfc_LatLon0.15_PT216H.grib2 2026-05-01 04:42 2.7M
20260501T00Z_MSC_GDPS_Rain-Accum24h_Sfc_LatLon0.15_PT216H.grib2 2026-05-01 04:42 3.2M
20260501T00Z_MSC_GDPS_Rain-Accum6h_Sfc_LatLon0.15_PT216H.grib2 2026-05-01 04:42 2.3M
20260501T00Z_MSC_GDPS_Rain-Accum_Sfc_LatLon0.15_PT216H.grib2 2026-05-01 04:42 4.1M
20260501T00Z_MSC_GDPS_RelativeHumidity_AGL-2m_LatLon0.15_PT216H.grib2 2026-05-01 04:42 1.0M
20260501T00Z_MSC_GDPS_RelativeHumidity_IsbL-0010_LatLon0.15_PT216H.grib2 2026-05-01 04:42 78K
20260501T00Z_MSC_GDPS_RelativeHumidity_IsbL-0020_LatLon0.15_PT216H.grib2 2026-05-01 04:42 159K
20260501T00Z_MSC_GDPS_RelativeHumidity_IsbL-0030_LatLon0.15_PT216H.grib2 2026-05-01 04:42 186K
20260501T00Z_MSC_GDPS_RelativeHumidity_IsbL-0050_LatLon0.15_PT216H.grib2 2026-05-01 04:42 333K
20260501T00Z_MSC_GDPS_RelativeHumidity_IsbL-0100_LatLon0.15_PT216H.grib2 2026-05-01 04:42 496K
20260501T00Z_MSC_GDPS_RelativeHumidity_IsbL-0150_LatLon0.15_PT216H.grib2 2026-05-01 04:42 680K
20260501T00Z_MSC_GDPS_RelativeHumidity_IsbL-0175_LatLon0.15_PT216H.grib2 2026-05-01 04:42 794K
20260501T00Z_MSC_GDPS_RelativeHumidity_IsbL-0200_LatLon0.15_PT216H.grib2 2026-05-01 04:42 703K
20260501T00Z_MSC_GDPS_RelativeHumidity_IsbL-0225_LatLon0.15_PT216H.grib2 2026-05-01 04:42 791K
20260501T00Z_MSC_GDPS_RelativeHumidity_IsbL-0250_LatLon0.15_PT216H.grib2 2026-05-01 04:42 870K
20260501T00Z_MSC_GDPS_RelativeHumidity_IsbL-0275_LatLon0.15_PT216H.grib2 2026-05-01 04:42 892K
20260501T00Z_MSC_GDPS_RelativeHumidity_IsbL-0300_LatLon0.15_PT216H.grib2 2026-05-01 04:42 936K
20260501T00Z_MSC_GDPS_RelativeHumidity_IsbL-0350_LatLon0.15_PT216H.grib2 2026-05-01 04:42 949K
20260501T00Z_MSC_GDPS_RelativeHumidity_IsbL-0400_LatLon0.15_PT216H.grib2 2026-05-01 04:42 969K
20260501T00Z_MSC_GDPS_RelativeHumidity_IsbL-0450_LatLon0.15_PT216H.grib2 2026-05-01 04:42 1.0M
20260501T00Z_MSC_GDPS_RelativeHumidity_IsbL-0500_LatLon0.15_PT216H.grib2 2026-05-01 04:42 1.0M
20260501T00Z_MSC_GDPS_RelativeHumidity_IsbL-0550_LatLon0.15_PT216H.grib2 2026-05-01 04:42 1.0M
20260501T00Z_MSC_GDPS_RelativeHumidity_IsbL-0600_LatLon0.15_PT216H.grib2 2026-05-01 04:42 1.1M
20260501T00Z_MSC_GDPS_RelativeHumidity_IsbL-0650_LatLon0.15_PT216H.grib2 2026-05-01 04:42 1.1M
20260501T00Z_MSC_GDPS_RelativeHumidity_IsbL-0700_LatLon0.15_PT216H.grib2 2026-05-01 04:42 1.1M
20260501T00Z_MSC_GDPS_RelativeHumidity_IsbL-0750_LatLon0.15_PT216H.grib2 2026-05-01 04:42 1.1M
20260501T00Z_MSC_GDPS_RelativeHumidity_IsbL-0800_LatLon0.15_PT216H.grib2 2026-05-01 04:42 1.3M
20260501T00Z_MSC_GDPS_RelativeHumidity_IsbL-0850_LatLon0.15_PT216H.grib2 2026-05-01 04:42 1.3M
20260501T00Z_MSC_GDPS_RelativeHumidity_IsbL-0875_LatLon0.15_PT216H.grib2 2026-05-01 04:42 1.3M
20260501T00Z_MSC_GDPS_RelativeHumidity_IsbL-0900_LatLon0.15_PT216H.grib2 2026-05-01 04:42 1.2M
20260501T00Z_MSC_GDPS_RelativeHumidity_IsbL-0925_LatLon0.15_PT216H.grib2 2026-05-01 04:42 1.2M
20260501T00Z_MSC_GDPS_RelativeHumidity_IsbL-0950_LatLon0.15_PT216H.grib2 2026-05-01 04:42 1.2M
20260501T00Z_MSC_GDPS_RelativeHumidity_IsbL-0970_LatLon0.15_PT216H.grib2 2026-05-01 04:42 1.2M
20260501T00Z_MSC_GDPS_RelativeHumidity_IsbL-0985_LatLon0.15_PT216H.grib2 2026-05-01 04:42 1.1M
20260501T00Z_MSC_GDPS_RelativeHumidity_IsbL-1000_LatLon0.15_PT216H.grib2 2026-05-01 04:42 1.1M
20260501T00Z_MSC_GDPS_RelativeHumidity_IsbL-1015_LatLon0.15_PT216H.grib2 2026-05-01 04:42 1.0M
20260501T00Z_MSC_GDPS_RelativeVorticity_IsbL-0200_LatLon0.15_PT216H.grib2 2026-05-01 04:42 1.2M
20260501T00Z_MSC_GDPS_RelativeVorticity_IsbL-0250_LatLon0.15_PT216H.grib2 2026-05-01 04:42 1.3M
20260501T00Z_MSC_GDPS_RelativeVorticity_IsbL-0500_LatLon0.15_PT216H.grib2 2026-05-01 04:42 1.5M
20260501T00Z_MSC_GDPS_RelativeVorticity_IsbL-0700_LatLon0.15_PT216H.grib2 2026-05-01 04:42 1.3M
20260501T00Z_MSC_GDPS_RelativeVorticity_IsbL-0850_LatLon0.15_PT216H.grib2 2026-05-01 04:42 1.6M
20260501T00Z_MSC_GDPS_Runoff-Accum_Sfc_LatLon0.15_PT216H.grib2 2026-05-01 04:42 137K
20260501T00Z_MSC_GDPS_SensibleHeatNetFlux_Sfc_LatLon0.15_PT216H.grib2 2026-05-01 04:42 446K
20260501T00Z_MSC_GDPS_ShowalterIndex_IsbL-0500_LatLon0.15_PT216H.grib2 2026-05-01 04:42 6.2M
20260501T00Z_MSC_GDPS_Snow-Accum12h_Sfc_LatLon0.15_PT216H.grib2 2026-05-01 04:42 1.5M
20260501T00Z_MSC_GDPS_Snow-Accum24h_Sfc_LatLon0.15_PT216H.grib2 2026-05-01 04:42 1.5M
20260501T00Z_MSC_GDPS_Snow-Accum6h_Sfc_LatLon0.15_PT216H.grib2 2026-05-01 04:42 1.4M
20260501T00Z_MSC_GDPS_Snow-Accum_Sfc_LatLon0.15_PT216H.grib2 2026-05-01 04:42 2.1M
20260501T00Z_MSC_GDPS_SnowDensity_Sfc_LatLon0.15_PT216H.grib2 2026-05-01 04:42 257K
20260501T00Z_MSC_GDPS_SnowDepth_Sfc_LatLon0.15_PT216H.grib2 2026-05-01 04:42 1.7M
20260501T00Z_MSC_GDPS_SoilTemp_DBS-0to10cm_LatLon0.15_PT216H.grib2 2026-05-01 04:42 515K
20260501T00Z_MSC_GDPS_SoilTemp_Sfc_LatLon0.15_PT216H.grib2 2026-05-01 04:42 565K
20260501T00Z_MSC_GDPS_SoilVolumetricIceContent_Sfc_LatLon0.15_PT216H.grib2 2026-05-01 04:42 178K
20260501T00Z_MSC_GDPS_SoilVolumetricWaterContent_DBS-0to10cm_LatLon0.15_PT216H.grib2 2026-05-01 04:42 598K
20260501T00Z_MSC_GDPS_SoilVolumetricWaterContent_DBS-0to1cm_LatLon0.15_PT216H.grib2 2026-05-01 04:42 650K
20260501T00Z_MSC_GDPS_SpecificHumidity_AGL-120m_LatLon0.15_PT216H.grib2 2026-05-01 04:42 1.1M
20260501T00Z_MSC_GDPS_SpecificHumidity_AGL-2m_LatLon0.15_PT216H.grib2 2026-05-01 04:42 1.2M
20260501T00Z_MSC_GDPS_SpecificHumidity_AGL-40m_LatLon0.15_PT216H.grib2 2026-05-01 04:42 1.1M
20260501T00Z_MSC_GDPS_SpecificHumidity_AGL-80m_LatLon0.15_PT216H.grib2 2026-05-01 04:42 1.1M
20260501T00Z_MSC_GDPS_SpecificHumidity_IsbL-0001_LatLon0.15_PT216H.grib2 2026-05-01 04:42 1.1M
20260501T00Z_MSC_GDPS_SpecificHumidity_IsbL-0005_LatLon0.15_PT216H.grib2 2026-05-01 04:42 1.0M
20260501T00Z_MSC_GDPS_SpecificHumidity_IsbL-0010_LatLon0.15_PT216H.grib2 2026-05-01 04:42 1.1M
20260501T00Z_MSC_GDPS_SpecificHumidity_IsbL-0020_LatLon0.15_PT216H.grib2 2026-05-01 04:42 1.2M
20260501T00Z_MSC_GDPS_SpecificHumidity_IsbL-0030_LatLon0.15_PT216H.grib2 2026-05-01 04:42 1.4M
20260501T00Z_MSC_GDPS_SpecificHumidity_IsbL-0050_LatLon0.15_PT216H.grib2 2026-05-01 04:42 1.5M
20260501T00Z_MSC_GDPS_SpecificHumidity_IsbL-0100_LatLon0.15_PT216H.grib2 2026-05-01 04:42 1.2M
20260501T00Z_MSC_GDPS_SpecificHumidity_IsbL-0150_LatLon0.15_PT216H.grib2 2026-05-01 04:42 1.3M
20260501T00Z_MSC_GDPS_SpecificHumidity_IsbL-0175_LatLon0.15_PT216H.grib2 2026-05-01 04:42 1.3M
20260501T00Z_MSC_GDPS_SpecificHumidity_IsbL-0200_LatLon0.15_PT216H.grib2 2026-05-01 04:42 1.3M
20260501T00Z_MSC_GDPS_SpecificHumidity_IsbL-0225_LatLon0.15_PT216H.grib2 2026-05-01 04:42 1.3M
20260501T00Z_MSC_GDPS_SpecificHumidity_IsbL-0250_LatLon0.15_PT216H.grib2 2026-05-01 04:42 1.2M
20260501T00Z_MSC_GDPS_SpecificHumidity_IsbL-0275_LatLon0.15_PT216H.grib2 2026-05-01 04:42 1.1M
20260501T00Z_MSC_GDPS_SpecificHumidity_IsbL-0300_LatLon0.15_PT216H.grib2 2026-05-01 04:42 1.2M
20260501T00Z_MSC_GDPS_SpecificHumidity_IsbL-0350_LatLon0.15_PT216H.grib2 2026-05-01 04:42 1.2M
20260501T00Z_MSC_GDPS_SpecificHumidity_IsbL-0400_LatLon0.15_PT216H.grib2 2026-05-01 04:42 1.4M
20260501T00Z_MSC_GDPS_SpecificHumidity_IsbL-0450_LatLon0.15_PT216H.grib2 2026-05-01 04:42 1.3M
20260501T00Z_MSC_GDPS_SpecificHumidity_IsbL-0500_LatLon0.15_PT216H.grib2 2026-05-01 04:42 1.5M
20260501T00Z_MSC_GDPS_SpecificHumidity_IsbL-0550_LatLon0.15_PT216H.grib2 2026-05-01 04:42 1.6M
20260501T00Z_MSC_GDPS_SpecificHumidity_IsbL-0600_LatLon0.15_PT216H.grib2 2026-05-01 04:42 1.4M
20260501T00Z_MSC_GDPS_SpecificHumidity_IsbL-0650_LatLon0.15_PT216H.grib2 2026-05-01 04:42 1.5M
20260501T00Z_MSC_GDPS_SpecificHumidity_IsbL-0700_LatLon0.15_PT216H.grib2 2026-05-01 04:42 1.6M
20260501T00Z_MSC_GDPS_SpecificHumidity_IsbL-0750_LatLon0.15_PT216H.grib2 2026-05-01 04:42 1.8M
20260501T00Z_MSC_GDPS_SpecificHumidity_IsbL-0800_LatLon0.15_PT216H.grib2 2026-05-01 04:42 1.9M
20260501T00Z_MSC_GDPS_SpecificHumidity_IsbL-0850_LatLon0.15_PT216H.grib2 2026-05-01 04:42 2.0M
20260501T00Z_MSC_GDPS_SpecificHumidity_IsbL-0875_LatLon0.15_PT216H.grib2 2026-05-01 04:42 2.0M
20260501T00Z_MSC_GDPS_SpecificHumidity_IsbL-0900_LatLon0.15_PT216H.grib2 2026-05-01 04:42 1.9M
20260501T00Z_MSC_GDPS_SpecificHumidity_IsbL-0925_LatLon0.15_PT216H.grib2 2026-05-01 04:42 1.6M
20260501T00Z_MSC_GDPS_SpecificHumidity_IsbL-0950_LatLon0.15_PT216H.grib2 2026-05-01 04:42 1.6M
20260501T00Z_MSC_GDPS_SpecificHumidity_IsbL-0970_LatLon0.15_PT216H.grib2 2026-05-01 04:42 1.5M
20260501T00Z_MSC_GDPS_SpecificHumidity_IsbL-0985_LatLon0.15_PT216H.grib2 2026-05-01 04:42 1.5M
20260501T00Z_MSC_GDPS_SpecificHumidity_IsbL-1000_LatLon0.15_PT216H.grib2 2026-05-01 04:42 1.5M
20260501T00Z_MSC_GDPS_SpecificHumidity_IsbL-1015_LatLon0.15_PT216H.grib2 2026-05-01 04:42 1.5M
20260501T00Z_MSC_GDPS_SpecificHumidity_Sfc_LatLon0.15_PT216H.grib2 2026-05-01 04:42 640K
20260501T00Z_MSC_GDPS_Thickness_IsbL-0850to0700_LatLon0.15_PT216H.grib2 2026-05-01 04:42 466K
20260501T00Z_MSC_GDPS_Thickness_IsbL-1000to0500_LatLon0.15_PT216H.grib2 2026-05-01 04:42 372K
20260501T00Z_MSC_GDPS_Thickness_IsbL-1000to0850_LatLon0.15_PT216H.grib2 2026-05-01 04:42 488K
20260501T00Z_MSC_GDPS_TotalCloudCover_Sfc_LatLon0.15_PT216H.grib2 2026-05-01 04:42 825K
20260501T00Z_MSC_GDPS_TotalTotalsIndex_Sfc_LatLon0.15_PT216H.grib2 2026-05-01 04:42 6.2M
20260501T00Z_MSC_GDPS_UVIndex-ClearSky_Sfc_LatLon0.15_PT216H.grib2 2026-05-01 04:51 1.0M
20260501T00Z_MSC_GDPS_UVIndex_Sfc_LatLon0.15_PT216H.grib2 2026-05-01 04:51 1.5M
20260501T00Z_MSC_GDPS_UpwardLongwaveRadiationFlux_NTAtm_LatLon0.15_PT216H.grib2 2026-05-01 04:42 834K
20260501T00Z_MSC_GDPS_VerticalVelocity_IsbL-0200_LatLon0.15_PT216H.grib2 2026-05-01 04:42 945K
20260501T00Z_MSC_GDPS_VerticalVelocity_IsbL-0250_LatLon0.15_PT216H.grib2 2026-05-01 04:42 848K
20260501T00Z_MSC_GDPS_VerticalVelocity_IsbL-0500_LatLon0.15_PT216H.grib2 2026-05-01 04:42 1.0M
20260501T00Z_MSC_GDPS_VerticalVelocity_IsbL-0600_LatLon0.15_PT216H.grib2 2026-05-01 04:42 1.3M
20260501T00Z_MSC_GDPS_VerticalVelocity_IsbL-0700_LatLon0.15_PT216H.grib2 2026-05-01 04:42 1.4M
20260501T00Z_MSC_GDPS_VerticalVelocity_IsbL-0850_LatLon0.15_PT216H.grib2 2026-05-01 04:42 1.6M
20260501T00Z_MSC_GDPS_WindChill_Sfc_LatLon0.15_PT216H.grib2 2026-05-01 04:42 5.3M
20260501T00Z_MSC_GDPS_WindDir_AGL-10m_LatLon0.15_PT216H.grib2 2026-05-01 04:42 1.3M
20260501T00Z_MSC_GDPS_WindDir_AGL-120m_LatLon0.15_PT216H.grib2 2026-05-01 04:42 1.3M
20260501T00Z_MSC_GDPS_WindDir_AGL-40m_LatLon0.15_PT216H.grib2 2026-05-01 04:42 1.4M
20260501T00Z_MSC_GDPS_WindDir_AGL-80m_LatLon0.15_PT216H.grib2 2026-05-01 04:42 1.4M
20260501T00Z_MSC_GDPS_WindDir_IsbL-0001_LatLon0.15_PT216H.grib2 2026-05-01 04:42 656K
20260501T00Z_MSC_GDPS_WindDir_IsbL-0005_LatLon0.15_PT216H.grib2 2026-05-01 04:42 800K
20260501T00Z_MSC_GDPS_WindDir_IsbL-0010_LatLon0.15_PT216H.grib2 2026-05-01 04:42 833K
20260501T00Z_MSC_GDPS_WindDir_IsbL-0020_LatLon0.15_PT216H.grib2 2026-05-01 04:42 933K
20260501T00Z_MSC_GDPS_WindDir_IsbL-0030_LatLon0.15_PT216H.grib2 2026-05-01 04:42 951K
20260501T00Z_MSC_GDPS_WindDir_IsbL-0050_LatLon0.15_PT216H.grib2 2026-05-01 04:42 956K
20260501T00Z_MSC_GDPS_WindDir_IsbL-0100_LatLon0.15_PT216H.grib2 2026-05-01 04:42 1.0M
20260501T00Z_MSC_GDPS_WindDir_IsbL-0150_LatLon0.15_PT216H.grib2 2026-05-01 04:42 1.0M
20260501T00Z_MSC_GDPS_WindDir_IsbL-0175_LatLon0.15_PT216H.grib2 2026-05-01 04:42 1.0M
20260501T00Z_MSC_GDPS_WindDir_IsbL-0200_LatLon0.15_PT216H.grib2 2026-05-01 04:42 1.1M
20260501T00Z_MSC_GDPS_WindDir_IsbL-0225_LatLon0.15_PT216H.grib2 2026-05-01 04:42 1.1M
20260501T00Z_MSC_GDPS_WindDir_IsbL-0250_LatLon0.15_PT216H.grib2 2026-05-01 04:42 1.1M
20260501T00Z_MSC_GDPS_WindDir_IsbL-0275_LatLon0.15_PT216H.grib2 2026-05-01 04:42 1.2M
20260501T00Z_MSC_GDPS_WindDir_IsbL-0300_LatLon0.15_PT216H.grib2 2026-05-01 04:42 1.2M
20260501T00Z_MSC_GDPS_WindDir_IsbL-0350_LatLon0.15_PT216H.grib2 2026-05-01 04:42 1.2M
20260501T00Z_MSC_GDPS_WindDir_IsbL-0400_LatLon0.15_PT216H.grib2 2026-05-01 04:42 1.3M
20260501T00Z_MSC_GDPS_WindDir_IsbL-0450_LatLon0.15_PT216H.grib2 2026-05-01 04:42 1.3M
20260501T00Z_MSC_GDPS_WindDir_IsbL-0500_LatLon0.15_PT216H.grib2 2026-05-01 04:42 1.4M
20260501T00Z_MSC_GDPS_WindDir_IsbL-0550_LatLon0.15_PT216H.grib2 2026-05-01 04:42 1.4M
20260501T00Z_MSC_GDPS_WindDir_IsbL-0600_LatLon0.15_PT216H.grib2 2026-05-01 04:42 1.5M
20260501T00Z_MSC_GDPS_WindDir_IsbL-0650_LatLon0.15_PT216H.grib2 2026-05-01 04:42 1.5M
20260501T00Z_MSC_GDPS_WindDir_IsbL-0700_LatLon0.15_PT216H.grib2 2026-05-01 04:42 1.6M
20260501T00Z_MSC_GDPS_WindDir_IsbL-0750_LatLon0.15_PT216H.grib2 2026-05-01 04:42 1.7M
20260501T00Z_MSC_GDPS_WindDir_IsbL-0800_LatLon0.15_PT216H.grib2 2026-05-01 04:42 1.8M
20260501T00Z_MSC_GDPS_WindDir_IsbL-0850_LatLon0.15_PT216H.grib2 2026-05-01 04:42 1.9M
20260501T00Z_MSC_GDPS_WindDir_IsbL-0875_LatLon0.15_PT216H.grib2 2026-05-01 04:42 1.9M
20260501T00Z_MSC_GDPS_WindDir_IsbL-0900_LatLon0.15_PT216H.grib2 2026-05-01 04:42 2.0M
20260501T00Z_MSC_GDPS_WindDir_IsbL-0925_LatLon0.15_PT216H.grib2 2026-05-01 04:42 2.0M
20260501T00Z_MSC_GDPS_WindDir_IsbL-0950_LatLon0.15_PT216H.grib2 2026-05-01 04:42 2.0M
20260501T00Z_MSC_GDPS_WindDir_IsbL-0970_LatLon0.15_PT216H.grib2 2026-05-01 04:42 2.0M
20260501T00Z_MSC_GDPS_WindDir_IsbL-0985_LatLon0.15_PT216H.grib2 2026-05-01 04:42 2.0M
20260501T00Z_MSC_GDPS_WindDir_IsbL-1000_LatLon0.15_PT216H.grib2 2026-05-01 04:42 2.1M
20260501T00Z_MSC_GDPS_WindDir_IsbL-1015_LatLon0.15_PT216H.grib2 2026-05-01 04:42 2.0M
20260501T00Z_MSC_GDPS_WindGust-Max_AGL-10m_LatLon0.15_PT216H.grib2 2026-05-01 04:42 2.2M
20260501T00Z_MSC_GDPS_WindGust-Min_AGL-10m_LatLon0.15_PT216H.grib2 2026-05-01 04:42 2.2M
20260501T00Z_MSC_GDPS_WindGust_AGL-10m_LatLon0.15_PT216H.grib2 2026-05-01 04:42 2.2M
20260501T00Z_MSC_GDPS_WindSpeed_AGL-10m_LatLon0.15_PT216H.grib2 2026-05-01 04:42 1.1M
20260501T00Z_MSC_GDPS_WindSpeed_AGL-120m_LatLon0.15_PT216H.grib2 2026-05-01 04:42 1.2M
20260501T00Z_MSC_GDPS_WindSpeed_AGL-40m_LatLon0.15_PT216H.grib2 2026-05-01 04:42 1.2M
20260501T00Z_MSC_GDPS_WindSpeed_AGL-80m_LatLon0.15_PT216H.grib2 2026-05-01 04:42 1.2M
20260501T00Z_MSC_GDPS_WindSpeed_IsbL-0001_LatLon0.15_PT216H.grib2 2026-05-01 04:42 653K
20260501T00Z_MSC_GDPS_WindSpeed_IsbL-0005_LatLon0.15_PT216H.grib2 2026-05-01 04:42 698K
20260501T00Z_MSC_GDPS_WindSpeed_IsbL-0010_LatLon0.15_PT216H.grib2 2026-05-01 04:42 630K
20260501T00Z_MSC_GDPS_WindSpeed_IsbL-0020_LatLon0.15_PT216H.grib2 2026-05-01 04:42 665K
20260501T00Z_MSC_GDPS_WindSpeed_IsbL-0030_LatLon0.15_PT216H.grib2 2026-05-01 04:42 864K
20260501T00Z_MSC_GDPS_WindSpeed_IsbL-0050_LatLon0.15_PT216H.grib2 2026-05-01 04:42 896K
20260501T00Z_MSC_GDPS_WindSpeed_IsbL-0100_LatLon0.15_PT216H.grib2 2026-05-01 04:42 1.1M
20260501T00Z_MSC_GDPS_WindSpeed_IsbL-0150_LatLon0.15_PT216H.grib2 2026-05-01 04:42 1.0M
20260501T00Z_MSC_GDPS_WindSpeed_IsbL-0175_LatLon0.15_PT216H.grib2 2026-05-01 04:42 1.0M
20260501T00Z_MSC_GDPS_WindSpeed_IsbL-0200_LatLon0.15_PT216H.grib2 2026-05-01 04:42 1.0M
20260501T00Z_MSC_GDPS_WindSpeed_IsbL-0225_LatLon0.15_PT216H.grib2 2026-05-01 04:42 1.1M
20260501T00Z_MSC_GDPS_WindSpeed_IsbL-0250_LatLon0.15_PT216H.grib2 2026-05-01 04:42 1.1M
20260501T00Z_MSC_GDPS_WindSpeed_IsbL-0275_LatLon0.15_PT216H.grib2 2026-05-01 04:42 1.1M
20260501T00Z_MSC_GDPS_WindSpeed_IsbL-0300_LatLon0.15_PT216H.grib2 2026-05-01 04:42 1.1M
20260501T00Z_MSC_GDPS_WindSpeed_IsbL-0350_LatLon0.15_PT216H.grib2 2026-05-01 04:42 1.1M
20260501T00Z_MSC_GDPS_WindSpeed_IsbL-0400_LatLon0.15_PT216H.grib2 2026-05-01 04:42 1.1M
20260501T00Z_MSC_GDPS_WindSpeed_IsbL-0450_LatLon0.15_PT216H.grib2 2026-05-01 04:42 1.1M
20260501T00Z_MSC_GDPS_WindSpeed_IsbL-0500_LatLon0.15_PT216H.grib2 2026-05-01 04:42 1.1M
20260501T00Z_MSC_GDPS_WindSpeed_IsbL-0550_LatLon0.15_PT216H.grib2 2026-05-01 04:42 1.1M
20260501T00Z_MSC_GDPS_WindSpeed_IsbL-0600_LatLon0.15_PT216H.grib2 2026-05-01 04:42 1.4M
20260501T00Z_MSC_GDPS_WindSpeed_IsbL-0650_LatLon0.15_PT216H.grib2 2026-05-01 04:42 1.4M
20260501T00Z_MSC_GDPS_WindSpeed_IsbL-0700_LatLon0.15_PT216H.grib2 2026-05-01 04:42 1.5M
20260501T00Z_MSC_GDPS_WindSpeed_IsbL-0750_LatLon0.15_PT216H.grib2 2026-05-01 04:42 1.6M
20260501T00Z_MSC_GDPS_WindSpeed_IsbL-0800_LatLon0.15_PT216H.grib2 2026-05-01 04:42 1.6M
20260501T00Z_MSC_GDPS_WindSpeed_IsbL-0850_LatLon0.15_PT216H.grib2 2026-05-01 04:42 1.7M
20260501T00Z_MSC_GDPS_WindSpeed_IsbL-0875_LatLon0.15_PT216H.grib2 2026-05-01 04:42 1.8M
20260501T00Z_MSC_GDPS_WindSpeed_IsbL-0900_LatLon0.15_PT216H.grib2 2026-05-01 04:42 1.8M
20260501T00Z_MSC_GDPS_WindSpeed_IsbL-0925_LatLon0.15_PT216H.grib2 2026-05-01 04:42 1.8M
20260501T00Z_MSC_GDPS_WindSpeed_IsbL-0950_LatLon0.15_PT216H.grib2 2026-05-01 04:42 1.9M
20260501T00Z_MSC_GDPS_WindSpeed_IsbL-0970_LatLon0.15_PT216H.grib2 2026-05-01 04:42 1.9M
20260501T00Z_MSC_GDPS_WindSpeed_IsbL-0985_LatLon0.15_PT216H.grib2 2026-05-01 04:42 1.9M
20260501T00Z_MSC_GDPS_WindSpeed_IsbL-1000_LatLon0.15_PT216H.grib2 2026-05-01 04:42 1.8M
20260501T00Z_MSC_GDPS_WindSpeed_IsbL-1015_LatLon0.15_PT216H.grib2 2026-05-01 04:42 1.8M
20260501T00Z_MSC_GDPS_WindU_AGL-10m_LatLon0.15_PT216H.grib2 2026-05-01 04:42 1.3M
20260501T00Z_MSC_GDPS_WindU_AGL-120m_LatLon0.15_PT216H.grib2 2026-05-01 04:42 972K
20260501T00Z_MSC_GDPS_WindU_AGL-40m_LatLon0.15_PT216H.grib2 2026-05-01 04:42 966K
20260501T00Z_MSC_GDPS_WindU_AGL-80m_LatLon0.15_PT216H.grib2 2026-05-01 04:42 973K
20260501T00Z_MSC_GDPS_WindU_IsbL-0001_LatLon0.15_PT216H.grib2 2026-05-01 04:42 510K
20260501T00Z_MSC_GDPS_WindU_IsbL-0005_LatLon0.15_PT216H.grib2 2026-05-01 04:42 697K
20260501T00Z_MSC_GDPS_WindU_IsbL-0010_LatLon0.15_PT216H.grib2 2026-05-01 04:42 704K
20260501T00Z_MSC_GDPS_WindU_IsbL-0020_LatLon0.15_PT216H.grib2 2026-05-01 04:42 732K
20260501T00Z_MSC_GDPS_WindU_IsbL-0030_LatLon0.15_PT216H.grib2 2026-05-01 04:42 738K
20260501T00Z_MSC_GDPS_WindU_IsbL-0050_LatLon0.15_PT216H.grib2 2026-05-01 04:42 759K
20260501T00Z_MSC_GDPS_WindU_IsbL-0100_LatLon0.15_PT216H.grib2 2026-05-01 04:42 863K
20260501T00Z_MSC_GDPS_WindU_IsbL-0150_LatLon0.15_PT216H.grib2 2026-05-01 04:42 1.0M
20260501T00Z_MSC_GDPS_WindU_IsbL-0175_LatLon0.15_PT216H.grib2 2026-05-01 04:42 1.0M
20260501T00Z_MSC_GDPS_WindU_IsbL-0200_LatLon0.15_PT216H.grib2 2026-05-01 04:42 1.0M
20260501T00Z_MSC_GDPS_WindU_IsbL-0225_LatLon0.15_PT216H.grib2 2026-05-01 04:42 1.1M
20260501T00Z_MSC_GDPS_WindU_IsbL-0250_LatLon0.15_PT216H.grib2 2026-05-01 04:42 851K
20260501T00Z_MSC_GDPS_WindU_IsbL-0275_LatLon0.15_PT216H.grib2 2026-05-01 04:42 878K
20260501T00Z_MSC_GDPS_WindU_IsbL-0300_LatLon0.15_PT216H.grib2 2026-05-01 04:42 871K
20260501T00Z_MSC_GDPS_WindU_IsbL-0350_LatLon0.15_PT216H.grib2 2026-05-01 04:42 888K
20260501T00Z_MSC_GDPS_WindU_IsbL-0400_LatLon0.15_PT216H.grib2 2026-05-01 04:42 1.1M
20260501T00Z_MSC_GDPS_WindU_IsbL-0450_LatLon0.15_PT216H.grib2 2026-05-01 04:42 1.1M
20260501T00Z_MSC_GDPS_WindU_IsbL-0500_LatLon0.15_PT216H.grib2 2026-05-01 04:42 1.1M
20260501T00Z_MSC_GDPS_WindU_IsbL-0550_LatLon0.15_PT216H.grib2 2026-05-01 04:42 1.1M
20260501T00Z_MSC_GDPS_WindU_IsbL-0600_LatLon0.15_PT216H.grib2 2026-05-01 04:42 1.1M
20260501T00Z_MSC_GDPS_WindU_IsbL-0650_LatLon0.15_PT216H.grib2 2026-05-01 04:42 1.2M
20260501T00Z_MSC_GDPS_WindU_IsbL-0700_LatLon0.15_PT216H.grib2 2026-05-01 04:42 1.2M
20260501T00Z_MSC_GDPS_WindU_IsbL-0750_LatLon0.15_PT216H.grib2 2026-05-01 04:42 1.3M
20260501T00Z_MSC_GDPS_WindU_IsbL-0800_LatLon0.15_PT216H.grib2 2026-05-01 04:42 1.4M
20260501T00Z_MSC_GDPS_WindU_IsbL-0850_LatLon0.15_PT216H.grib2 2026-05-01 04:42 1.4M
20260501T00Z_MSC_GDPS_WindU_IsbL-0875_LatLon0.15_PT216H.grib2 2026-05-01 04:42 1.4M
20260501T00Z_MSC_GDPS_WindU_IsbL-0900_LatLon0.15_PT216H.grib2 2026-05-01 04:42 1.5M
20260501T00Z_MSC_GDPS_WindU_IsbL-0925_LatLon0.15_PT216H.grib2 2026-05-01 04:42 1.5M
20260501T00Z_MSC_GDPS_WindU_IsbL-0950_LatLon0.15_PT216H.grib2 2026-05-01 04:42 1.4M
20260501T00Z_MSC_GDPS_WindU_IsbL-0970_LatLon0.15_PT216H.grib2 2026-05-01 04:42 1.4M
20260501T00Z_MSC_GDPS_WindU_IsbL-0985_LatLon0.15_PT216H.grib2 2026-05-01 04:42 1.4M
20260501T00Z_MSC_GDPS_WindU_IsbL-1000_LatLon0.15_PT216H.grib2 2026-05-01 04:42 1.4M
20260501T00Z_MSC_GDPS_WindU_IsbL-1015_LatLon0.15_PT216H.grib2 2026-05-01 04:42 1.3M
20260501T00Z_MSC_GDPS_WindV_AGL-10m_LatLon0.15_PT216H.grib2 2026-05-01 04:42 1.6M
20260501T00Z_MSC_GDPS_WindV_AGL-120m_LatLon0.15_PT216H.grib2 2026-05-01 04:42 1.0M
20260501T00Z_MSC_GDPS_WindV_AGL-40m_LatLon0.15_PT216H.grib2 2026-05-01 04:42 966K
20260501T00Z_MSC_GDPS_WindV_AGL-80m_LatLon0.15_PT216H.grib2 2026-05-01 04:42 1.0M
20260501T00Z_MSC_GDPS_WindV_IsbL-0001_LatLon0.15_PT216H.grib2 2026-05-01 04:42 793K
20260501T00Z_MSC_GDPS_WindV_IsbL-0005_LatLon0.15_PT216H.grib2 2026-05-01 04:42 773K
20260501T00Z_MSC_GDPS_WindV_IsbL-0010_LatLon0.15_PT216H.grib2 2026-05-01 04:42 888K
20260501T00Z_MSC_GDPS_WindV_IsbL-0020_LatLon0.15_PT216H.grib2 2026-05-01 04:42 933K
20260501T00Z_MSC_GDPS_WindV_IsbL-0030_LatLon0.15_PT216H.grib2 2026-05-01 04:42 939K
20260501T00Z_MSC_GDPS_WindV_IsbL-0050_LatLon0.15_PT216H.grib2 2026-05-01 04:42 1.0M
20260501T00Z_MSC_GDPS_WindV_IsbL-0100_LatLon0.15_PT216H.grib2 2026-05-01 04:42 1.1M
20260501T00Z_MSC_GDPS_WindV_IsbL-0150_LatLon0.15_PT216H.grib2 2026-05-01 04:42 1.0M
20260501T00Z_MSC_GDPS_WindV_IsbL-0175_LatLon0.15_PT216H.grib2 2026-05-01 04:42 1.0M
20260501T00Z_MSC_GDPS_WindV_IsbL-0200_LatLon0.15_PT216H.grib2 2026-05-01 04:42 835K
20260501T00Z_MSC_GDPS_WindV_IsbL-0225_LatLon0.15_PT216H.grib2 2026-05-01 04:42 900K
20260501T00Z_MSC_GDPS_WindV_IsbL-0250_LatLon0.15_PT216H.grib2 2026-05-01 04:42 904K
20260501T00Z_MSC_GDPS_WindV_IsbL-0275_LatLon0.15_PT216H.grib2 2026-05-01 04:42 930K
20260501T00Z_MSC_GDPS_WindV_IsbL-0300_LatLon0.15_PT216H.grib2 2026-05-01 04:42 923K
20260501T00Z_MSC_GDPS_WindV_IsbL-0350_LatLon0.15_PT216H.grib2 2026-05-01 04:42 879K
20260501T00Z_MSC_GDPS_WindV_IsbL-0400_LatLon0.15_PT216H.grib2 2026-05-01 04:42 880K
20260501T00Z_MSC_GDPS_WindV_IsbL-0450_LatLon0.15_PT216H.grib2 2026-05-01 04:42 1.1M
20260501T00Z_MSC_GDPS_WindV_IsbL-0500_LatLon0.15_PT216H.grib2 2026-05-01 04:42 1.1M
20260501T00Z_MSC_GDPS_WindV_IsbL-0550_LatLon0.15_PT216H.grib2 2026-05-01 04:42 1.1M
20260501T00Z_MSC_GDPS_WindV_IsbL-0600_LatLon0.15_PT216H.grib2 2026-05-01 04:42 1.1M
20260501T00Z_MSC_GDPS_WindV_IsbL-0650_LatLon0.15_PT216H.grib2 2026-05-01 04:42 1.2M
20260501T00Z_MSC_GDPS_WindV_IsbL-0700_LatLon0.15_PT216H.grib2 2026-05-01 04:42 1.2M
20260501T00Z_MSC_GDPS_WindV_IsbL-0750_LatLon0.15_PT216H.grib2 2026-05-01 04:42 1.3M
20260501T00Z_MSC_GDPS_WindV_IsbL-0800_LatLon0.15_PT216H.grib2 2026-05-01 04:42 1.3M
20260501T00Z_MSC_GDPS_WindV_IsbL-0850_LatLon0.15_PT216H.grib2 2026-05-01 04:42 1.4M
20260501T00Z_MSC_GDPS_WindV_IsbL-0875_LatLon0.15_PT216H.grib2 2026-05-01 04:42 1.4M
20260501T00Z_MSC_GDPS_WindV_IsbL-0900_LatLon0.15_PT216H.grib2 2026-05-01 04:42 1.5M
20260501T00Z_MSC_GDPS_WindV_IsbL-0925_LatLon0.15_PT216H.grib2 2026-05-01 04:42 1.5M
20260501T00Z_MSC_GDPS_WindV_IsbL-0950_LatLon0.15_PT216H.grib2 2026-05-01 04:42 1.4M
20260501T00Z_MSC_GDPS_WindV_IsbL-0970_LatLon0.15_PT216H.grib2 2026-05-01 04:42 1.4M
20260501T00Z_MSC_GDPS_WindV_IsbL-0985_LatLon0.15_PT216H.grib2 2026-05-01 04:42 1.4M
20260501T00Z_MSC_GDPS_WindV_IsbL-1000_LatLon0.15_PT216H.grib2 2026-05-01 04:42 1.4M
20260501T00Z_MSC_GDPS_WindV_IsbL-1015_LatLon0.15_PT216H.grib2 2026-05-01 04:42 1.3M